Temp
3 4 3 4 4 4 5 4 4 4 5 5 5 5 6 6 6 7 7 7 7 7 8 8 8 8 7 7 7 6 5 6 7 7 7 6 7 6 7 7 6 7 7 7 8
3 4 3 4 4 4 4 4 4 4 5 5 5 5 5 6 7 6 7 7 7 7 7 7 8 7 6 5 5 5 5 7 6 6 6 6 6 6 5 5 5 7 7 7 7
3 3 3 3 4 4 4 4 4 4 4 4 4 4 5 5 6 7 6 6 6 6 6 7 7 6 6 5 4 4 5 5 4 6 5 5 6 6 6 5 6 7 7 6 6
4 3 3 3 3 4 4 3 3 3 4 3 3 4 4 4 4 4 5 5 5 4 5 5 5 5 5 5 4 4 3 4 3 4 4 4 5 6 5 6 6 6 6 7 6
4 4 3 3 3 3 3 3 3 3 3 3 3 3 3 4 5 4 4 5 4 4 4 4 4 4 3 2 3 4 4 4 4 4 5 5 5 6 5 6 6 5 6 6 6
4 4 4 3 3 2 2 1 2 2 3 3 3 3 3 3 4 4 4 3 3 3 3 3 3 3 3 3 2 1 3 3 3 4 4 4 4 3 5 6 5 5 5 5 5
4 4 3 3 3 2 1 1 1 1 1 2 2 2 3 3 3 3 4 4 4 4 3 2 2 3 1 1 1 3 2 1 2 2 3 2 2 3 4 5 5 5 5 5 5
3 3 3 2 2 2 2 1 1 1 0 1 1 1 3 3 3 4 4 4 4 3 2 2 2 2 2 0 1 2 1 2 3 2 2 2 4 4 3 3 4 3 3 3 4
2 2 3 2 2 1 1 1 0 0 -0 1 0 0 2 3 3 3 4 3 4 3 2 1 0 0 -0 -0 1 2 3 4 3 2 2 2 4 2 2 2 3 4 3 3 2
1 1 2 2 1 1 1 0 -0 -1 -0 -0 -0 -0 1 1 2 2 3 2 3 2 1 1 0 -0 -1 0 3 5 3 3 2 3 1 2 2 2 2 2 3 3 3 2 2
1 1 1 1 1 1 0 -1 -1 -1 -1 -1 -0 -0 -1 -0 1 1 2 1 1 2 1 -0 -1 -0 1 0 1 2 1 2 2 2 1 1 2 2 3 2 3 2 2 2 3
1 1 1 1 1 0 -0 -2 -0 -1 -2 -2 -2 0 0 -0 -0 0 0 0 0 1 -1 -1 -1 1 0 -0 -0 -0 0 1 1 1 0 1 2 3 3 3 2 2 2 2 2
1 1 1 1 1 0 -1 -2 -2 -3 -3 -1 -0 0 1 -0 0 2 -1 -1 -1 -1 -1 -0 1 -0 -1 -1 -1 -1 -0 1 1 1 1 1 2 4 3 2 2 2 2 2 3
1 1 1 1 0 0 -1 -2 -2 -3 -3 -2 0 -0 -0 -1 -1 1 -0 -2 -3 -1 -1 -1 -0 -1 -1 -1 -1 0 0 -0 -0 1 3 1 5 4 3 2 1 2 1 2 2
1 2 2 1 -0 -1 -1 -2 -2 -3 -4 -1 -2 -1 -1 -1 -1 -0 -0 -2 -2 -2 -2 -1 -2 -1 -1 -1 -1 0 -0 -0 0 1 1 2 2 5 3 2 1 -0 1 1 1
1 2 1 1 0 -2 -3 -3 -3 -4 -3 -2 -2 -2 -1 -2 -2 -2 -1 -3 -3 -3 -3 -2 -2 -2 -1 -1 -1 -1 -1 -1 -0 0 2 3 3 5 3 3 0 1 1 0 0
1 1 0 -1 -2 -2 -2 -3 -4 -4 -3 -2 -3 -2 -2 -3 -2 -3 -2 -3 -2 -3 -2 -2 -2 -2 -2 -1 -2 -2 -1 2 2 2 3 2 3 4 1 -0 -1 1 1 0 -0
0 -0 -3 -3 -3 -3 -4 -4 -5 -3 -3 -2 -3 -3 -3 -3 -3 -3 -3 -3 -3 -2 -1 -1 -1 -2 -3 -2 -1 -1 -0 2 2 3 4 1 2 3 0 -1 -0 -1 -1 -1 -0
-0 -3 -3 -3 -3 -3 -3 -4 -4 -4 -4 -3 -4 -4 -3 -3 -3 -3 -3 -3 -3 -3 -1 -2 -2 -3 -3 -2 -2 -1 -1 -1 -1 -0 1 2 2 -0 -3 -3 -3 -2 -2 -2 -1
-3 -4 -4 -3 -2 -3 -4 -4 -4 -4 -3 -3 -3 -3 -2 -3 -3 -2 -3 -4 -4 -3 -3 -4 -3 -3 -4 -3 -3 -3 -2 -2 -2 -1 1 3 3 3 -3 -3 -3 -2 -2 -2 -2
-3 -4 -3 -3 -4 -4 -5 -5 -4 -5 -4 -4 -3 -3 -3 -3 -3 -3 -3 -4 -4 -4 -4 -5 -4 -4 -4 -4 -3 -3 -3 -3 -3 -1 0 1 3 -3 -3 -3 -2 -3 -3 -3 -3
-4 -4 -5 -5 -5 -6 -5 -5 -5 -5 -6 -5 -4 -4 -4 -4 -4 -4 -5 -4 -3 -4 -4 -4 -4 -3 -4 -4 -4 -4 -4 -4 -3 -2 -2 -2 -1 -4 -3 -3 -3 -3 -3 -4 -4
-4 -5 -7 -7 -7 -7 -7 -6 -6 -7 -7 -6 -5 -5 -6 -5 -6 -5 -5 -4 -4 -4 -4 -4 -5 -4 -4 -6 -5 -5 -5 -5 -6 -6 -4 -2 -1 -5 -4 -4 -4 -4 -4 -5 -5
-6 -7 -8 -8 -8 -8 -8 -7 -7 -8 -7 -7 -6 -6 -7 -7 -7 -7 -7 -6 -5 -5 -5 -5 -5 -4 -2 -4 -5 -6 -6 -6 -6 -6 -4 -3 -3 -3 -4 -5 -7 -5 -5 -5 -5
-6 -7 -7 -8 -8 -7 -7 -8 -8 -8 -7 -6 -6 -6 -6 -7 -7 -7 -7 -6 -6 -6 -6 -6 -7 -6 -6 -6 -7 -6 -6 -6 -6 -6 -6 -5 -6 -6 -6 -7 -7 -6 -6 -5 -5
-6 -6 -7 -7 -8 -8 -8 -8 -7 -7 -7 -7 -6 -6 -7 -6 -6 -7 -6 -7 -7 -7 -7 -7 -8 -8 -7 -7 -7 -7 -7 -6 -6 -7 -7 -7 -7 -7 -8 -8 -7 -7 -6 -6 -6
-7 -7 -7 -8 -8 -8 -8 -8 -7 -7 -6 -6 -6 -6 -7 -7 -7 -7 -7 -7 -7 -8 -8 -9 -8 -9 -7 -8 -8 -7 -7 -7 -7 -7 -8 -8 -7 -7 -8 -8 -8 -7 -7 -7 -7
Height
3132 3132 3130 3131 3130 3130 3129 3130 3129 3129 3127 3127 3126 3123 3121 3121 3121 3120 3120 3120 3119 3118 3117 3117 3117 3116 3116 3116 3116 3118 3118 3116 3116 3117 3118 3114 3116 3114 3114 3116 3115 3114 3114 3116 3117
3126 3126 3125 3125 3124 3125 3124 3123 3123 3122 3122 3121 3120 3119 3117 3117 3116 3116 3115 3113 3114 3114 3112 3111 3111 3110 3110 3110 3109 3110 3111 3111 3112 3110 3110 3111 3110 3111 3109 3111 3110 3110 3110 3109 3111
3120 3120 3119 3118 3117 3118 3118 3117 3116 3116 3116 3116 3114 3113 3112 3112 3113 3109 3108 3108 3107 3109 3108 3107 3106 3106 3105 3104 3105 3104 3101 3108 3103 3103 3103 3103 3103 3103 3102 3101 3104 3105 3104 3103 3104
3112 3112 3111 3111 3110 3110 3110 3109 3109 3108 3109 3109 3108 3108 3107 3108 3113 3105 3105 3104 3104 3104 3105 3103 3101 3101 3102 3099 3100 3097 3097 3096 3098 3097 3097 3096 3097 3096 3095 3094 3098 3096 3097 3097 3097
3102 3104 3103 3104 3103 3102 3102 3102 3101 3101 3101 3101 3101 3101 3101 3101 3107 3100 3099 3099 3099 3098 3098 3098 3097 3096 3096 3094 3095 3091 3093 3091 3090 3090 3091 3091 3089 3089 3086 3091 3091 3089 3089 3090 3091
3094 3095 3095 3096 3096 3095 3095 3095 3095 3094 3093 3093 3093 3093 3093 3094 3095 3096 3094 3094 3094 3094 3093 3092 3092 3091 3088 3088 3088 3088 3087 3085 3084 3084 3085 3084 3084 3083 3083 3084 3083 3083 3083 3084 3085
3086 3086 3086 3087 3088 3088 3087 3087 3089 3087 3087 3086 3085 3084 3082 3091 3088 3090 3089 3089 3090 3088 3088 3086 3085 3086 3084 3082 3082 3082 3081 3081 3080 3078 3078 3079 3077 3075 3076 3078 3077 3077 3078 3079 3079
3076 3077 3077 3078 3079 3079 3079 3079 3081 3081 3081 3080 3079 3077 3071 3079 3081 3082 3081 3083 3083 3082 3082 3081 3079 3079 3079 3079 3077 3078 3078 3076 3076 3073 3075 3074 3071 3073 3071 3072 3074 3074 3074 3074 3075
3067 3068 3067 3070 3069 3070 3070 3069 3073 3073 3073 3072 3073 3073 3066 3070 3072 3074 3073 3076 3074 3075 3074 3074 3074 3075 3072 3074 3076 3073 3069 3071 3073 3071 3072 3070 3067 3067 3067 3067 3068 3069 3069 3069 3069
3058 3058 3058 3061 3061 3061 3060 3062 3063 3064 3063 3064 3065 3071 3066 3065 3064 3067 3067 3068 3069 3069 3070 3068 3069 3067 3068 3070 3066 3066 3065 3066 3067 3069 3064 3064 3061 3061 3061 3061 3061 3061 3063 3064 3063
3048 3049 3050 3051 3050 3052 3053 3055 3057 3055 3054 3058 3057 3058 3060 3059 3061 3061 3061 3061 3063 3063 3063 3063 3062 3055 3062 3062 3063 3062 3061 3061 3062 3063 3059 3057 3055 3055 3055 3055 3055 3056 3057 3057 3056
3037 3039 3040 3041 3040 3044 3043 3043 3046 3047 3044 3045 3048 3046 3051 3052 3052 3052 3053 3055 3054 3055 3057 3061 3052 3053 3056 3057 3056 3056 3056 3056 3057 3056 3054 3052 3048 3049 3048 3048 3050 3051 3050 3049 3050
3027 3029 3030 3031 3033 3033 3035 3036 3038 3040 3041 3035 3038 3038 3038 3039 3040 3042 3043 3045 3046 3049 3048 3047 3050 3047 3049 3051 3050 3049 3050 3052 3053 3052 3050 3047 3041 3040 3040 3039 3042 3044 3044 3044 3044
3017 3018 3018 3020 3026 3025 3025 3031 3030 3036 3034 3031 3025 3023 3025 3024 3025 3034 3033 3039 3041 3043 3047 3043 3045 3044 3044 3045 3047 3045 3047 3048 3048 3048 3045 3043 3036 3035 3037 3037 3038 3038 3038 3038 3038
3006 3007 3007 3013 3013 3018 3023 3025 3025 3033 3031 3024 3018 3014 3015 3019 3019 3019 3024 3028 3030 3036 3040 3037 3038 3039 3038 3039 3042 3042 3043 3043 3043 3042 3042 3038 3039 3025 3030 3032 3034 3033 3032 3032 3032
2996 2997 2998 3001 3004 3009 3015 3017 3024 3030 3017 3013 3012 3012 3013 3013 3014 3013 3015 3022 3029 3031 3031 3033 3033 3033 3033 3035 3038 3041 3040 3040 3040 3040 3034 3030 3031 3021 3024 3028 3030 3028 3027 3027 3026
2984 2987 2989 2994 2998 3003 3005 3014 3019 3014 3012 3011 3009 3008 3009 3010 3010 3011 3012 3017 3021 3025 3024 3028 3030 3030 3029 3032 3034 3036 3037 3033 3031 3030 3022 3023 3024 3020 3021 3021 3023 3023 3023 3022 3021
2974 2978 2981 2985 2991 2993 2999 3008 3002 3001 3004 3004 3007 3005 3008 3009 3007 3009 3011 3015 3018 3019 3019 3022 3025 3026 3025 3029 3031 3031 3032 3028 3020 3015 3014 3022 3017 3015 3016 3015 3017 3018 3019 3017 3017
2966 2970 2973 2977 2981 2987 2992 2993 2991 2995 2996 2997 3002 3003 3004 3003 3005 3007 3008 3011 3014 3016 3018 3018 3020 3021 3022 3024 3027 3027 3028 3028 3027 3025 3023 3014 3013 3013 3013 3012 3012 3013 3012 3010 3009
2960 2963 2964 2968 2972 2978 2984 2982 2988 2990 2990 2993 2995 2997 2999 3001 3001 3004 3006 3007 3008 3011 3012 3015 3018 3019 3022 3024 3024 3024 3024 3027 3027 3023 3013 3003 3004 3005 3008 3010 3009 3009 3007 3005 3003
2953 2954 2954 2961 2967 2970 2973 2976 2981 2983 2988 2989 2991 2994 2995 2998 2999 3000 3003 3003 3003 3005 3008 3011 3017 3018 3018 3019 3021 3021 3021 3023 3024 3021 3013 3005 3001 3002 3003 3006 3006 3004 3002 3000 2997
2944 2946 2945 2950 2958 2959 2963 2970 2974 2976 2981 2983 2987 2989 2992 2993 2994 2995 2997 2998 3001 3004 3006 3010 3011 3013 3016 3013 3014 3015 3017 3019 3019 3016 3015 3012 3006 3001 3002 3004 3003 3000 2999 2996 2994
2935 2937 2940 2944 2949 2953 2959 2965 2969 2973 2979 2981 2983 2985 2986 2989 2994 2993 2994 2996 2999 3002 3005 3007 3010 3012 3013 3014 3010 3011 3012 3013 3014 3014 3012 3008 3001 2999 2999 3000 2997 2996 2994 2991 2989
2928 2933 2939 2940 2943 2951 2957 2961 2963 2969 2974 2977 2979 2982 2985 2987 2989 2991 2992 2995 2998 2999 3001 3003 3005 3005 3005 3004 3006 3008 3008 3009 3010 3010 3005 3000 2999 3001 3000 3000 2994 2990 2989 2987 2984
2925 2927 2932 2934 2941 2947 2952 2959 2961 2967 2971 2975 2978 2981 2983 2985 2987 2989 2990 2992 2994 2996 2997 3000 3001 3003 3003 3004 3004 3005 3005 3005 3004 3003 3001 2996 2994 2996 2997 2994 2987 2985 2985 2983 2980
2920 2924 2928 2933 2938 2945 2951 2957 2961 2965 2969 2972 2975 2977 2980 2983 2985 2985 2987 2989 2991 2993 2994 2996 2998 2998 2999 3000 3001 3000 2998 2997 2996 2996 2993 2992 2985 2989 2987 2982 2981 2981 2981 2979 2977
2916 2920 2926 2930 2937 2945 2949 2956 2961 2963 2967 2970 2972 2975 2977 2978 2980 2982 2983 2985 2987 2989 2991 2993 2995 2996 2996 2998 2997 2994 2988 2988 2989 2989 2988 2985 2982 2983 2977 2977 2977 2977 2977 2976 2975
Wind_Speed
29 30 30 32 29 31 31 31 30 30 28 28 30 30 28 26 26 28 27 25 24 26 25 24 24 23 22 24 24 23 18 21 24 20 17 19 16 18 25 22 21 22 23 24 20
33 34 33 35 33 33 32 32 33 33 33 32 34 33 33 30 29 28 29 27 27 26 27 26 26 24 24 25 27 26 21 22 23 22 23 24 23 19 22 19 23 24 22 23 20
38 38 38 37 37 37 36 36 36 35 35 35 36 35 36 33 29 33 28 23 20 19 20 21 20 19 21 24 25 23 29 21 27 27 27 26 28 27 28 26 26 24 25 26 26
41 40 40 40 41 42 41 40 40 39 38 39 37 35 37 34 20 23 26 26 23 22 23 24 26 23 22 24 22 27 27 29 26 26 27 28 29 31 30 31 26 27 25 27 25
38 39 40 41 42 42 42 40 39 40 40 37 36 36 36 36 25 30 29 28 29 29 28 28 28 26 24 20 23 30 27 27 27 28 27 28 30 29 31 26 26 27 26 25 26
39 40 39 40 41 43 43 36 41 39 38 36 35 37 37 37 30 25 26 23 22 23 24 25 28 30 31 30 27 17 25 27 26 28 27 27 26 22 27 21 24 24 25 24 25
37 39 40 41 42 42 42 41 41 40 38 38 39 38 39 32 32 28 26 24 25 25 26 24 25 26 25 24 27 31 30 24 25 27 26 22 27 29 24 22 25 23 23 23 24
38 39 38 38 40 42 42 44 41 38 39 39 40 39 43 35 31 31 33 32 32 32 28 28 27 25 27 24 24 22 20 20 13 9 12 14 22 16 12 17 18 17 16 19 19
38 38 38 37 38 39 42 43 40 40 38 38 37 39 45 35 25 22 19 19 22 26 28 30 27 25 23 21 18 19 24 20 16 13 14 17 17 11 12 14 16 19 18 16 16
35 35 36 36 36 39 41 42 41 39 43 39 42 36 38 33 24 24 21 16 22 24 28 31 29 27 21 21 25 20 24 20 19 13 12 18 25 24 24 24 24 21 19 16 21
34 34 36 37 38 37 38 42 42 45 50 44 45 37 29 24 26 31 35 37 29 26 31 29 26 35 28 27 27 24 21 23 22 21 21 22 23 20 19 20 20 18 16 18 23
35 35 37 38 40 38 38 39 42 45 44 46 46 52 46 43 43 44 41 36 31 31 22 25 34 30 27 25 25 23 23 24 20 16 17 19 23 22 22 22 19 16 15 20 17
35 36 38 40 40 39 38 36 34 38 37 48 51 54 55 54 50 48 40 36 30 27 30 32 21 16 26 24 26 26 25 21 20 17 21 22 27 17 9 9 12 13 14 14 14
35 37 40 41 38 39 39 28 35 31 22 33 41 42 40 39 44 41 40 34 26 30 28 26 27 23 17 23 22 25 21 22 20 16 14 6 8 7 11 10 10 6 10 12 11
37 38 41 38 38 37 32 32 33 28 5 10 23 31 33 30 27 26 24 32 35 25 26 21 15 17 27 24 20 20 18 16 15 16 17 19 13 13 12 13 9 8 10 13 15
38 39 37 38 37 31 32 31 28 17 8 9 17 14 18 21 18 23 13 26 25 26 22 24 17 11 12 20 25 14 11 12 13 14 16 21 18 14 15 12 9 15 15 16 21
39 36 31 29 29 35 33 28 18 9 6 11 14 17 15 12 18 11 17 27 21 26 27 21 19 12 11 9 13 15 12 11 11 9 11 4 13 16 10 12 10 16 18 22 22
34 29 30 26 32 31 30 32 13 17 21 14 8 10 13 12 14 10 17 26 24 18 16 20 14 14 10 14 14 19 19 16 11 11 5 6 9 7 14 17 15 15 17 19 18
32 31 28 31 32 39 39 29 15 20 13 19 14 15 15 15 12 14 16 24 23 21 18 15 10 8 10 15 17 12 16 13 9 13 12 17 12 9 8 4 9 14 12 14 18
29 31 33 38 34 37 35 30 19 20 14 17 17 14 16 16 17 15 17 20 21 26 17 10 6 11 17 17 16 10 10 5 8 5 12 11 15 11 10 9 10 10 13 20 27
34 38 46 45 40 39 39 28 26 21 19 17 16 12 13 15 16 16 14 14 24 23 17 9 14 5 14 13 13 12 11 10 9 11 7 10 8 4 11 10 13 17 25 30 31
34 48 44 42 35 37 40 36 31 30 22 13 20 19 15 16 11 11 9 10 16 11 11 18 11 14 12 18 20 17 14 15 16 12 14 15 19 7 12 16 23 27 26 30 32
37 44 42 45 35 35 27 30 20 16 15 16 10 15 13 18 12 16 12 10 11 15 13 18 8 9 5 7 16 11 12 13 13 8 16 14 5 5 10 16 26 28 31 33 32
30 21 36 41 30 29 23 24 25 22 19 16 19 14 8 8 14 9 14 16 20 21 22 14 11 12 11 2 4 10 15 13 13 11 19 26 28 21 19 23 26 34 31 31 29
34 22 39 44 32 29 26 19 19 17 18 17 14 14 14 9 11 12 16 18 19 18 18 14 10 12 14 12 10 13 16 19 23 25 27 29 32 29 27 28 33 34 31 27 24
33 27 39 17 38 26 23 20 20 17 17 17 13 14 13 10 13 14 17 15 13 18 16 15 7 10 12 13 14 18 22 25 26 26 30 32 39 28 25 33 34 29 21 20 16
27 27 36 23 32 26 24 20 20 20 16 14 14 11 13 15 14 13 14 15 14 13 16 12 9 5 9 7 8 16 21 21 20 17 19 23 23 23 30 24 22 19 14 13 11
Wind_Direction
274 276 279 280 284 285 288 291 294 294 299 299 300 304 299 295 293 290 283 284 281 277 276 277 276 273 269 265 264 259 244 250 250 256 264 279 276 277 267 268 263 263 260 258 248
276 276 277 278 281 283 285 284 288 290 294 294 296 300 301 297 291 292 288 286 283 281 278 274 272 269 263 260 258 249 249 259 254 251 264 271 273 263 270 263 266 267 269 263 250
274 276 278 278 279 280 281 282 282 284 286 290 291 294 298 301 297 290 291 287 283 282 279 276 272 270 260 258 253 260 248 260 265 269 269 267 263 268 270 264 269 268 261 262 259
271 271 272 274 276 278 278 280 281 282 283 285 289 290 293 299 302 295 288 281 279 279 279 279 277 274 270 265 264 258 265 259 266 270 270 269 270 262 262 268 270 266 263 260 258
270 271 270 271 273 275 278 279 278 279 281 284 285 285 288 289 289 287 292 287 280 277 274 274 273 269 265 264 261 270 271 272 275 272 275 272 270 274 266 271 267 266 262 259 258
268 269 270 269 269 272 276 278 277 281 281 284 285 284 282 287 289 283 291 294 282 277 272 267 268 265 263 263 260 266 271 270 271 271 275 275 275 270 270 267 268 264 265 262 256
267 266 267 268 269 268 268 270 274 279 278 279 284 280 273 288 282 283 285 283 286 279 270 261 258 260 257 261 262 266 270 273 269 268 268 276 271 262 276 261 263 265 263 263 265
269 267 266 267 266 267 267 263 270 269 269 282 279 273 278 283 279 279 277 280 280 272 264 262 259 254 256 255 263 269 266 267 269 249 253 256 267 268 259 257 258 261 261 259 261
272 270 268 266 265 263 261 261 261 263 268 270 271 271 281 279 277 280 274 272 264 261 254 254 255 256 256 250 261 252 256 252 253 258 254 248 260 261 257 255 259 252 258 263 262
271 273 272 268 264 262 259 257 254 259 258 267 265 275 276 281 277 269 259 270 272 263 251 247 249 250 245 231 238 259 255 259 257 254 255 254 265 270 267 262 268 264 260 262 264
273 270 269 266 262 260 259 258 255 255 259 258 262 262 266 266 265 268 272 282 272 258 249 250 233 237 239 239 249 258 256 261 259 265 269 268 269 268 264 260 262 263 259 252 264
271 269 267 263 260 259 255 253 258 257 264 261 265 264 265 273 271 274 267 269 257 253 233 228 240 246 245 241 243 247 256 259 268 267 262 273 274 270 266 261 257 249 243 259 257
272 268 265 261 258 255 256 257 256 262 261 268 270 267 268 268 269 267 260 256 248 239 227 224 250 238 235 235 236 241 244 255 261 270 274 279 283 268 248 204 222 237 241 253 253
270 266 262 261 256 253 248 247 253 259 263 258 275 275 264 262 261 262 258 244 230 238 238 238 243 249 236 237 233 243 249 256 257 261 262 240 283 245 243 228 183 235 223 237 249
271 265 262 263 256 251 253 235 256 250 267 254 242 258 257 256 255 269 257 230 228 229 215 226 253 244 240 240 223 239 253 251 247 251 262 257 259 263 197 192 200 209 249 248 274
268 264 258 250 245 242 233 240 235 235 249 236 248 251 248 253 249 242 245 207 227 225 228 237 251 228 245 235 237 249 232 236 245 248 251 249 230 278 194 192 198 246 266 269 290
263 262 257 246 238 225 236 226 228 216 209 226 229 241 252 238 218 218 214 194 200 207 219 220 224 232 228 201 203 213 225 231 224 212 243 223 216 230 195 199 236 246 264 281 292
259 257 228 224 219 224 225 222 206 234 225 230 211 226 223 210 202 206 200 200 214 217 224 211 206 220 226 215 228 223 226 240 257 247 257 212 239 198 230 241 244 250 266 282 296
248 229 227 219 221 220 228 213 216 228 224 236 226 221 223 214 197 197 215 209 209 204 214 211 207 203 217 223 217 221 223 236 264 266 270 253 240 268 222 246 272 281 300 325 335
223 224 219 222 220 224 235 219 217 225 215 203 209 206 217 208 199 201 192 199 206 205 200 191 232 238 237 231 220 212 211 210 218 253 254 247 244 240 187 193 255 279 307 319 321
224 219 217 217 224 223 217 220 221 201 204 200 211 213 208 206 200 193 198 203 212 207 231 231 219 228 221 228 235 234 232 229 250 250 270 280 274 192 214 260 267 294 308 312 317
219 216 209 200 200 201 208 222 234 211 188 200 211 208 206 205 189 175 180 195 197 194 206 225 222 232 225 231 230 234 243 238 239 243 244 276 273 240 257 272 277 289 300 304 311
224 206 191 198 193 198 203 209 195 184 189 194 181 196 194 197 206 205 203 214 230 215 229 223 211 209 226 253 247 232 228 217 216 234 245 247 239 218 291 293 288 297 301 307 312
191 162 185 186 190 192 189 194 188 177 191 198 207 202 205 215 227 190 207 211 220 225 224 212 212 227 253 347 181 206 205 208 217 229 248 247 267 260 279 287 297 296 303 309 308
218 183 184 197 201 202 207 211 185 183 191 189 208 205 199 193 193 194 202 211 208 214 221 228 237 237 241 245 243 237 236 239 241 251 257 270 270 272 279 287 278 288 299 303 302
203 198 189 200 199 193 179 178 176 175 186 201 207 216 202 200 205 205 211 207 204 215 219 228 241 243 254 253 252 259 255 254 255 259 262 267 271 279 282 264 276 285 291 304 291
204 201 194 189 191 184 181 180 184 194 195 204 216 215 197 216 217 215 205 206 218 221 225 220 225 228 252 246 264 270 263 253 250 253 255 260 277 281 276 274 278 283 282 296 279